Theta_e
315 315 314 314 315 315 315 315 315 315 315 316 316 316 316 316 316 315 314 313 312 312 313 313 313 312 312 312 312 313 311 314 320 324 326 325 323 322 320 319 317 313 314 318 323 330 335 337 341 343 344 343 348 349 350 355 351 360 370 367 360 361 364 366 371 371 364 362 363 362 363 364 364 361 355 351 350 349 346 345 341 341 341 342 343 342 343 344
315 315 315 314 314 314 314 315 315 315 315 316 316 315 315 315 315 314 313 312 312 313 314 314 313 312 312 313 313 313 313 318 324 324 323 323 324 322 318 318 316 312 314 320 324 331 337 339 340 341 341 345 350 349 353 359 357 360 366 365 363 364 364 364 368 368 363 362 363 362 362 362 364 359 355 354 352 349 346 344 342 343 343 342 342 343 344 344
315 315 315 314 313 314 314 314 315 315 315 315 316 316 315 315 315 315 314 313 314 315 314 313 312 312 312 313 313 314 317 323 327 326 326 325 323 321 318 315 314 312 315 322 326 333 338 337 339 340 344 349 351 349 355 360 359 360 362 364 365 365 364 362 365 367 362 363 364 363 361 361 362 356 354 355 351 349 347 346 344 345 343 342 342 343 344 344
314 314 313 313 312 313 313 313 314 314 314 315 315 316 316 316 317 317 316 315 315 314 313 312 312 312 312 313 312 314 320 327 328 330 329 327 325 322 321 316 311 311 316 322 328 335 337 335 336 337 345 350 350 351 356 359 358 357 361 365 364 363 365 364 364 365 361 362 364 363 363 361 359 355 355 354 352 351 348 346 344 345 343 342 342 343 344 344
313 312 312 313 313 313 313 313 314 314 314 314 314 315 315 316 316 317 316 314 312 311 311 312 312 312 313 312 312 317 323 326 329 334 328 325 322 319 319 315 310 312 318 322 330 337 336 334 333 336 345 349 354 357 357 357 357 358 362 365 364 362 365 366 364 365 362 362 363 363 363 359 357 357 356 353 353 351 347 345 343 343 343 343 342 343 345 343
312 312 312 313 313 313 313 313 314 314 314 314 313 313 314 315 314 315 314 312 310 311 311 312 312 312 313 312 313 320 325 324 329 333 328 325 319 314 313 312 310 314 320 323 331 338 335 333 331 336 346 349 356 358 357 355 356 361 364 363 363 363 365 365 363 363 363 362 363 362 358 357 359 359 354 354 353 350 348 344 342 343 342 343 343 343 343 342
312 312 312 312 313 313 313 313 313 313 314 314 314 313 313 314 314 314 314 312 311 311 313 313 313 313 312 313 318 324 324 323 332 331 325 323 317 312 311 311 311 316 323 326 332 337 332 331 332 337 347 351 354 355 356 356 354 361 365 363 362 364 365 363 362 361 362 362 362 359 356 357 360 357 353 354 352 349 348 343 341 342 343 344 343 342 342 342
312 312 312 312 312 313 313 313 314 313 313 313 313 313 313 314 314 313 313 312 311 312 313 312 313 312 311 317 324 327 325 327 335 329 320 320 317 311 311 312 313 318 325 329 333 336 331 329 332 335 348 354 353 353 354 354 355 361 364 362 361 364 363 360 361 361 361 362 360 357 359 359 358 356 355 354 350 347 345 341 342 341 342 342 341 341 341 341
312 312 312 312 312 312 313 313 314 313 313 312 313 314 314 313 313 313 313 312 311 312 313 313 314 312 312 319 326 324 327 331 334 329 320 320 317 311 311 314 318 321 326 330 333 334 330 329 331 335 349 352 351 351 349 352 358 360 360 360 362 363 361 361 363 363 364 363 359 361 363 361 358 356 356 353 348 347 343 341 342 340 341 341 340 341 341 341
312 312 312 312 312 312 312 313 313 313 313 312 313 315 315 313 313 312 312 311 311 312 312 313 313 312 314 323 327 325 327 328 332 331 323 321 317 313 313 317 320 321 326 331 331 331 330 328 330 337 347 350 349 347 345 351 357 357 355 359 361 362 361 362 364 363 364 364 362 363 363 362 360 357 354 351 347 345 342 341 341 340 340 341 341 340 341 341
312 312 312 312 312 312 313 313 313 313 313 312 314 315 313 313 312 311 311 310 312 312 312 313 311 313 319 325 325 327 324 324 329 329 324 321 318 315 314 318 320 322 328 330 329 329 329 328 329 338 345 349 347 344 350 352 356 359 358 361 360 362 363 363 366 365 363 365 363 362 364 363 360 357 353 350 347 345 342 342 340 340 340 340 342 340 342 343
312 312 312 312 312 312 313 313 313 313 313 313 315 314 312 311 311 310 311 310 312 312 312 313 310 315 324 326 325 325 321 323 327 326 324 320 318 317 315 319 321 323 329 328 327 326 327 329 326 335 345 348 345 345 357 356 358 361 360 363 363 365 365 363 366 365 364 364 363 361 359 361 362 356 352 349 347 346 344 343 340 340 340 341 341 341 342 344
313 312 312 312 312 312 313 313 314 313 313 315 316 313 310 310 310 310 311 311 312 311 312 311 311 320 327 327 326 322 319 325 326 324 322 321 321 319 319 322 322 324 329 327 327 326 326 327 326 334 343 347 346 343 356 356 359 362 361 363 363 363 365 365 363 364 366 364 365 363 351 355 365 356 351 350 346 346 345 343 341 340 340 340 341 341 342 343
313 312 312 312 312 312 313 313 314 313 314 316 315 312 310 310 310 311 311 312 312 311 311 310 313 323 329 329 325 318 321 326 324 323 321 322 322 322 323 324 323 324 327 328 328 326 326 327 329 336 341 346 347 338 349 356 357 364 361 360 362 357 359 366 362 364 369 364 365 363 348 353 367 357 351 351 347 346 343 342 342 340 340 340 341 341 342 342
313 313 312 312 312 313 314 314 313 313 315 317 314 311 311 311 311 312 311 311 313 311 311 314 317 325 330 330 324 317 321 324 323 323 321 321 321 321 323 323 323 325 327 327 327 326 327 329 331 336 340 344 347 340 342 353 359 361 351 348 356 355 359 367 362 363 368 364 365 362 352 356 364 358 353 352 350 349 345 343 342 341 341 341 342 343 341 341
313 313 312 312 312 313 314 314 313 314 316 316 314 312 313 313 312 311 311 311 312 311 315 323 328 328 328 325 321 319 322 324 324 323 321 321 320 320 322 323 325 326 326 326 325 326 327 328 329 334 340 344 344 343 337 340 350 355 347 343 346 351 357 364 361 362 363 364 365 363 361 362 362 358 354 352 352 350 347 345 343 343 343 342 342 343 343 342
314 314 312 311 312 313 314 314 313 315 316 315 314 314 314 314 314 312 312 311 312 315 319 327 331 328 327 324 319 320 324 325 324 323 322 321 320 321 322 323 324 325 325 324 323 324 325 326 327 331 339 343 343 345 332 323 334 351 351 345 346 350 354 356 361 362 360 363 367 366 366 364 360 358 354 353 352 350 348 346 345 344 344 343 342 343 343 342
315 314 312 312 312 313 314 314 314 315 316 314 313 316 317 316 315 314 317 318 320 324 326 327 327 325 324 322 320 322 326 327 324 323 323 322 322 321 321 322 323 324 323 324 323 322 322 322 325 332 338 342 344 343 328 322 335 346 347 345 347 349 349 353 359 361 361 362 366 367 367 364 361 360 356 354 352 350 348 347 346 345 345 344 342 343 343 342
316 315 313 312 312 313 314 314 314 316 317 315 315 319 323 321 318 319 323 327 328 331 330 326 325 323 320 320 323 326 328 327 325 323 323 323 323 321 321 321 322 323 322 322 322 321 321 322 323 329 335 340 345 341 333 336 344 344 345 349 348 345 345 356 360 359 363 362 364 367 368 368 362 361 360 356 354 351 349 348 349 348 346 345 343 344 343 343
318 315 313 312 313 313 314 314 314 316 317 316 318 325 329 328 325 326 327 328 329 328 322 320 322 320 319 321 323 326 326 325 325 325 324 324 323 321 320 320 321 321 322 321 322 321 320 321 321 326 334 340 343 342 338 341 346 345 345 349 350 342 343 359 362 358 362 361 363 367 368 370 364 361 361 358 356 356 353 349 348 348 347 345 344 344 344 344
318 315 313 312 313 313 314 315 314 316 317 316 318 325 329 324 322 323 323 326 328 323 318 318 319 319 321 323 323 323 322 323 325 325 325 324 323 322 319 319 320 319 321 322 322 322 320 318 319 326 334 337 339 341 340 337 341 345 343 343 343 342 347 360 363 360 361 361 363 366 366 369 367 363 361 359 358 359 358 353 348 347 348 347 346 346 346 345
319 316 313 312 313 314 314 314 314 316 317 317 319 324 326 321 318 320 321 323 324 319 317 317 318 319 322 323 323 323 322 323 325 325 325 324 323 322 320 319 318 319 321 322 322 321 318 317 320 325 329 332 337 339 340 339 336 337 339 337 335 341 351 356 362 362 360 361 363 364 365 368 368 364 363 362 360 358 356 356 354 348 347 348 346 347 348 346
319 316 313 312 313 313 314 314 315 317 317 319 323 325 323 320 319 322 322 323 323 317 316 317 316 318 320 320 321 322 323 324 325 325 324 323 323 322 322 320 319 319 319 321 322 317 314 317 321 324 325 329 335 338 337 337 333 332 335 330 330 343 346 344 356 363 360 361 362 362 363 366 367 365 366 365 362 361 360 358 360 354 347 348 346 347 349 347
319 316 313 313 313 313 315 314 315 316 318 321 323 324 323 320 321 323 323 325 323 317 317 318 318 319 319 320 321 320 323 324 324 326 323 322 322 322 322 322 320 320 319 320 322 319 317 321 323 322 324 328 334 338 336 332 328 330 334 330 332 344 342 344 358 364 363 361 361 362 357 358 365 366 369 368 363 364 363 359 360 357 350 348 347 347 350 348
319 316 313 312 313 313 314 314 316 319 321 323 323 324 323 320 323 323 324 326 322 316 318 317 318 321 319 320 321 320 323 325 324 325 323 321 321 322 322 322 322 321 320 319 320 321 322 324 325 321 323 329 335 337 334 330 324 324 331 332 338 344 342 353 361 361 362 358 357 360 351 351 360 363 368 369 367 366 362 360 359 358 353 348 349 348 349 350
318 316 313 312 313 313 315 319 321 321 323 324 323 323 321 322 324 323 325 325 317 316 319 317 318 319 318 320 322 322 323 325 325 325 323 322 321 322 321 321 323 322 321 321 320 320 322 324 326 323 323 331 337 335 334 334 324 318 328 332 337 341 345 355 354 349 352 356 361 360 351 351 356 359 365 368 368 366 363 363 360 358 355 349 351 349 349 351
318 316 313 313 312 313 317 322 321 320 323 322 322 322 321 324 324 323 328 321 312 315 320 318 319 318 318 321 322 323 323 324 325 324 322 322 321 322 322 320 322 321 322 321 316 318 322 324 325 325 326 331 334 331 332 335 324 319 329 332 333 335 343 352 348 340 346 353 357 357 352 350 351 356 363 365 366 366 365 366 361 358 356 350 349 348 349 351
318 316 313 313 313 313 315 317 319 321 322 321 323 322 322 324 323 324 327 317 311 315 321 318 319 319 319 321 321 322 323 324 324 322 322 323 321 322 322 322 322 321 323 321 313 317 323 322 325 329 330 331 332 332 333 333 327 325 331 331 332 333 336 343 339 336 341 341 340 347 349 347 347 355 363 365 364 366 365 364 361 360 357 352 350 347 348 351
317 315 314 313 312 313 314 314 318 323 322 323 323 322 323 324 323 326 325 316 313 317 320 318 319 320 319 321 322 322 323 324 323 321 322 322 322 323 322 323 324 321 323 322 317 321 323 323 327 329 330 331 332 333 333 332 329 330 332 330 332 333 332 335 331 331 335 333 331 337 342 343 344 350 358 362 359 362 367 365 361 360 358 355 353 348 348 351
317 315 314 313 314 319 321 319 321 324 323 324 323 323 323 323 324 324 318 315 315 317 319 318 319 320 320 321 321 323 324 324 324 323 322 322 321 323 323 324 325 322 323 324 321 323 324 326 328 328 329 330 330 331 330 332 331 330 332 329 329 330 331 333 326 326 327 325 328 334 339 340 340 345 354 360 359 360 368 367 361 360 359 357 355 351 349 349
317 315 314 314 315 320 323 323 324 325 325 324 322 324 324 324 326 318 313 315 316 317 318 319 320 320 321 321 321 321 323 324 324 323 323 322 322 323 323 324 323 321 321 322 322 323 324 326 328 328 328 328 328 328 328 331 331 330 332 328 322 322 323 322 320 322 322 321 329 340 345 341 335 341 352 361 361 358 364 367 364 360 360 359 357 353 350 349
316 315 314 314 315 316 318 320 322 325 326 324 324 324 324 325 323 314 313 314 314 316 319 320 320 321 322 322 322 320 322 323 323 324 323 322 323 323 323 323 322 318 314 315 318 320 322 326 327 328 327 327 326 323 324 328 330 331 328 323 317 315 318 318 317 320 321 323 334 342 345 344 340 344 352 358 360 357 359 363 363 360 358 357 356 354 351 349
316 315 315 316 315 316 317 320 323 325 325 325 325 325 325 322 316 312 313 314 313 316 319 320 319 321 321 321 321 321 321 323 322 323 324 323 322 321 323 324 323 320 316 315 314 313 317 324 326 327 326 326 326 321 318 321 326 329 322 318 315 315 318 321 321 322 322 325 336 343 342 343 345 352 354 353 357 357 356 359 362 362 358 355 356 355 352 349
316 316 317 316 317 317 319 321 323 325 326 326 325 326 324 317 314 314 315 315 316 317 318 318 318 320 320 321 321 321 320 321 322 323 324 323 320 320 322 323 324 324 321 317 313 311 311 315 322 325 323 324 327 323 322 323 325 327 327 324 317 314 317 319 321 324 323 325 334 340 338 335 338 348 355 352 353 354 354 356 360 361 359 356 356 356 354 349
316 316 316 317 318 322 325 325 325 327 326 326 326 325 319 313 312 314 315 316 318 319 317 318 318 318 318 319 321 321 320 318 321 323 324 322 320 320 323 322 323 325 322 316 315 314 309 311 321 326 324 325 325 324 327 326 321 324 328 323 316 318 319 316 318 322 320 322 331 336 337 339 343 351 355 352 351 351 354 355 357 358 358 357 357 358 361 358
317 320 320 321 323 327 329 327 327 328 326 327 326 320 315 313 315 316 317 317 318 319 317 317 317 315 313 315 318 320 319 319 320 321 322 322 322 323 324 324 323 324 322 318 317 316 309 311 323 326 323 325 324 323 326 323 318 321 320 316 319 327 324 314 314 319 318 319 325 331 337 344 348 350 352 353 353 351 354 355 354 355 355 355 357 360 365 364
319 323 326 327 326 325 324 322 326 327 326 327 323 316 314 317 318 317 319 318 318 319 318 315 315 314 311 312 315 318 319 318 319 318 318 320 321 322 323 324 323 323 324 322 320 321 315 313 322 326 322 324 324 323 324 323 322 319 315 317 324 326 324 319 315 316 318 318 320 328 336 337 337 343 350 354 354 351 353 354 353 355 355 355 357 359 363 362
323 325 326 327 323 321 320 320 324 325 325 327 322 317 316 319 318 317 319 318 318 320 319 315 315 316 314 312 313 318 318 314 316 317 317 318 318 320 323 324 323 322 323 322 321 325 320 313 318 325 324 324 325 324 320 321 324 321 319 323 322 315 314 316 315 315 318 318 320 326 332 331 328 336 347 352 353 352 353 353 354 356 357 356 358 360 362 361
324 324 325 325 321 320 320 320 323 324 324 324 321 317 317 317 318 318 317 318 318 319 318 317 317 317 317 315 314 318 317 314 316 317 315 317 318 319 322 322 322 322 322 323 323 325 324 316 315 324 326 324 325 321 315 316 322 322 323 325 323 317 314 315 315 315 315 318 322 325 327 330 334 342 349 352 355 355 354 354 354 356 357 358 358 359 361 361
324 323 324 325 322 320 320 320 322 323 324 323 320 318 318 317 318 318 317 317 317 318 318 319 319 317 318 319 317 318 318 317 318 318 317 319 319 319 322 321 321 322 321 323 323 323 325 320 314 320 325 320 319 319 318 317 318 318 317 317 318 319 318 317 316 315 313 315 319 320 321 330 346 359 356 353 357 360 357 356 355 355 355 356 356 356 358 359
326 326 325 322 321 320 319 321 322 322 323 321 318 317 317 317 317 317 318 318 317 317 317 318 320 319 318 319 318 319 320 319 319 319 319 319 318 318 320 321 321 322 322 322 323 322 323 320 315 315 317 315 317 322 324 322 321 320 316 316 318 317 315 314 313 315 314 313 315 316 321 333 352 365 361 356 361 366 360 355 355 354 354 354 353 353 355 357
325 325 325 321 321 320 320 322 321 320 320 319 318 317 316 317 317 317 317 318 318 318 318 318 320 320 320 320 319 320 320 319 319 320 319 320 320 319 320 320 321 321 322 322 323 324 324 322 316 314 316 318 323 325 324 322 324 324 320 321 322 319 315 310 310 312 312 313 314 312 321 338 354 359 358 356 362 366 358 355 357 354 351 352 350 350 352 355
323 325 324 321 321 320 321 322 321 320 319 318 317 316 316 317 317 317 318 319 319 319 319 319 319 320 321 320 320 321 320 319 320 321 319 320 321 319 320 320 320 321 322 322 324 325 325 322 316 314 319 324 325 325 325 324 323 321 321 324 322 319 318 315 315 316 311 312 313 310 320 339 353 358 360 358 359 361 358 359 361 355 353 354 354 355 355 355
323 326 323 319 321 320 321 321 321 321 320 319 318 317 316 317 316 317 319 318 318 319 319 319 319 319 320 320 320 321 319 318 318 320 320 321 321 320 320 319 320 321 321 322 324 323 321 320 317 315 317 318 319 319 319 320 321 319 321 325 324 323 323 319 319 318 313 312 311 312 325 341 353 360 360 357 356 357 359 360 360 359 357 356 359 361 359 359
324 326 320 318 320 320 319 320 320 320 321 319 318 317 317 318 317 317 317 318 317 318 319 319 319 319 320 319 319 320 320 318 318 319 320 320 320 319 319 319 320 320 321 324 325 321 321 323 321 316 315 316 316 316 316 317 320 320 321 324 325 324 322 318 315 311 311 313 311 316 329 344 355 360 358 358 357 358 365 362 356 359 359 358 361 360 360 362
323 325 323 321 320 318 319 319 318 319 320 319 319 317 317 318 318 316 317 318 317 317 319 319 319 319 318 319 320 319 320 319 318 319 320 320 320 319 319 320 318 320 324 327 325 322 323 325 324 320 318 318 319 321 324 323 319 317 319 321 324 325 324 320 313 310 313 313 312 322 336 341 348 358 357 358 358 358 365 362 354 358 359 358 361 359 359 362
322 324 325 323 320 318 318 318 318 318 317 319 320 319 318 319 317 317 317 317 316 317 319 319 318 319 320 320 320 319 320 320 320 320 320 320 320 319 320 318 318 327 332 327 322 322 322 320 323 324 321 322 325 326 327 325 321 319 319 319 321 323 324 319 313 314 319 315 314 330 342 334 341 357 357 356 359 355 356 357 354 355 355 355 359 358 358 359
323 325 324 322 321 320 320 318 318 319 317 318 319 318 318 318 319 319 317 316 317 318 319 321 319 319 320 321 321 322 321 320 320 320 320 321 320 319 320 318 318 328 331 322 319 324 321 318 321 322 320 323 326 326 326 325 324 323 322 321 322 324 323 318 316 320 323 316 315 332 341 334 340 352 351 352 357 355 354 354 352 352 353 354 355 355 355 356
325 327 327 324 321 321 322 320 317 318 318 318 319 317 318 319 319 318 316 316 319 319 319 321 320 319 321 320 321 324 323 321 322 324 321 321 321 320 320 320 319 322 323 319 322 325 321 318 322 322 320 322 324 324 325 324 322 323 324 324 325 326 325 322 321 324 326 320 322 338 346 345 346 348 349 350 351 353 355 355 353 352 352 352 352 354 354 354
327 330 328 327 324 321 322 320 318 318 318 318 318 318 318 318 318 318 315 315 319 319 317 320 320 319 320 321 322 323 324 324 325 325 321 321 321 321 321 321 320 320 320 320 322 323 320 319 323 323 318 319 324 325 323 323 322 320 322 326 328 328 329 327 327 329 329 327 327 335 343 349 351 349 350 350 350 353 354 355 357 355 353 353 354 355 354 352
329 330 328 328 326 323 321 320 318 318 318 319 319 319 318 318 318 318 315 314 318 319 318 319 320 319 320 321 322 323 322 322 323 322 320 321 320 321 322 321 320 320 321 321 321 322 322 321 322 322 316 316 321 322 321 323 321 318 319 325 329 329 329 332 335 337 336 333 331 330 336 347 352 350 351 351 351 353 354 357 358 355 354 354 354 354 353 351
329 331 331 329 327 325 322 320 319 318 319 321 321 319 318 319 318 316 316 317 317 317 317 318 318 319 321 322 322 321 320 320 321 320 320 320 320 320 321 320 320 320 320 321 321 321 322 321 320 320 315 315 319 321 321 320 318 317 321 325 329 330 333 336 338 340 340 339 338 337 340 348 351 349 350 351 352 354 355 354 354 353 354 353 351 352 352 350
Wind_Speed
11 11 11 11 11 12 12 12 13 13 12 12 12 11 11 11 11 10 11 10 10 10 9 9 9 9 10 11 13 13 13 14 15 12 16 14 8 11 11 9 11 12 10 11 13 12 12 13 13 12 11 9 6 5 3 4 4 1 3 1 2 2 4 4 5 4 6 11 10 9 8 10 10 6 6 8 8 10 11 11 13 15 18 21 25 29 27 26
12 11 11 11 11 12 12 13 13 13 13 13 12 12 11 11 11 11 11 10 10 10 9 9 8 9 9 11 12 11 13 15 17 18 22 19 12 12 12 13 13 10 12 14 15 14 12 10 10 10 9 6 4 4 2 4 5 2 2 1 2 2 5 6 5 5 8 13 12 10 9 9 11 10 8 9 11 11 11 13 16 19 21 24 26 27 26 25
12 12 11 11 12 12 13 13 14 13 13 13 13 12 12 11 11 11 11 11 10 10 10 9 8 9 9 10 10 9 12 16 15 14 17 19 18 17 15 15 15 13 16 16 15 14 12 10 9 8 7 5 3 4 1 2 4 1 1 2 1 5 7 6 5 5 9 14 13 12 11 10 11 10 8 10 14 11 11 15 17 20 21 22 22 24 26 24
12 12 12 12 12 12 13 14 14 14 14 14 13 12 12 12 12 12 11 11 10 10 10 9 9 9 9 9 7 8 11 14 7 1 2 10 15 18 18 17 15 15 17 17 15 13 13 12 11 7 7 6 3 4 2 1 2 0 3 1 4 8 7 6 6 5 10 13 12 13 12 12 11 9 10 11 12 9 11 15 17 21 22 22 21 22 23 23
12 12 12 12 12 13 13 14 15 15 15 14 13 12 12 12 12 12 11 11 10 9 9 9 10 9 9 8 4 7 10 6 3 7 4 5 8 12 16 16 15 15 16 17 15 14 13 12 11 8 7 5 1 4 2 2 2 1 1 3 4 6 6 5 5 3 6 9 11 13 12 11 10 9 11 11 9 7 10 16 19 21 22 21 21 20 21 21
13 12 13 13 14 15 15 16 16 16 16 14 13 12 12 13 13 13 12 11 10 9 9 9 10 9 7 7 5 6 8 3 4 5 1 3 4 6 11 14 14 14 14 15 15 14 12 10 10 7 6 4 2 2 3 2 1 1 3 7 3 3 7 6 6 3 2 7 9 11 11 10 10 10 10 9 9 8 10 17 20 20 22 23 21 20 19 19
14 13 13 14 15 16 16 17 17 18 17 16 14 13 12 12 13 13 12 10 10 9 9 9 10 8 6 7 5 5 9 7 2 4 3 3 2 3 9 13 14 13 13 15 15 12 10 10 10 7 7 5 0 4 6 4 3 1 3 9 3 3 7 8 6 3 1 5 8 10 12 11 12 11 9 9 10 10 12 18 20 20 22 23 20 19 18 18
14 14 14 14 14 15 16 17 18 18 18 17 15 14 12 12 12 12 12 10 8 8 8 9 8 6 6 7 6 7 9 4 5 3 3 1 1 3 9 11 12 13 13 15 14 11 10 9 10 8 5 4 3 7 6 7 4 3 5 9 5 3 10 10 5 4 2 3 8 10 12 11 11 10 10 11 12 12 15 19 20 19 20 19 19 18 17 16
15 14 14 14 14 15 16 17 18 18 18 18 16 14 12 11 11 11 10 9 7 7 7 6 5 4 6 6 7 7 3 4 6 1 3 2 3 5 10 10 12 14 13 14 14 13 10 7 10 8 3 2 6 10 7 5 4 5 8 10 8 7 11 8 6 4 1 1 6 11 10 10 10 9 10 11 12 14 16 20 19 19 18 17 17 17 16 15
17 15 14 14 14 15 16 17 17 18 18 18 17 14 11 9 10 9 9 7 6 6 6 5 3 5 6 7 8 5 2 5 4 3 2 5 7 9 12 11 12 14 13 13 14 13 10 9 9 5 2 4 8 11 7 2 8 8 8 11 11 10 8 6 7 4 3 5 4 11 10 7 5 4 8 9 12 16 17 20 19 18 17 16 16 15 15 15
18 16 15 14 14 15 15 17 17 18 18 17 16 13 10 8 8 8 8 6 5 6 6 4 3 5 7 9 8 4 3 2 1 4 5 9 10 11 13 12 12 14 14 11 12 13 12 12 10 6 2 4 8 10 1 12 15 11 10 13 10 9 7 5 6 3 3 4 2 10 11 5 1 4 9 9 13 16 16 18 19 17 16 16 17 15 12 13
19 17 16 14 14 15 16 17 17 18 18 16 13 11 9 8 7 7 7 5 4 4 4 3 3 4 8 9 9 5 3 3 1 3 6 9 9 10 12 12 12 14 13 11 11 12 13 13 11 9 4 3 9 6 10 18 13 8 9 12 9 8 7 4 3 4 2 3 1 7 9 4 3 7 11 10 12 15 14 16 17 16 15 15 15 13 11 13
20 18 16 15 15 15 16 16 17 18 17 14 12 9 7 6 6 5 5 4 3 4 4 3 2 4 8 8 4 3 3 2 2 3 7 9 9 10 11 11 11 13 13 13 10 10 13 12 10 10 8 7 7 2 13 17 10 5 5 8 7 6 3 0 1 1 2 2 0 2 4 5 6 9 10 9 12 15 14 15 15 14 14 14 13 12 11 13
21 19 17 16 15 16 16 16 17 18 16 13 10 8 7 5 5 4 4 5 3 3 3 4 4 4 8 7 2 1 4 2 3 7 8 9 9 9 10 10 11 12 12 13 11 9 10 9 9 9 9 9 7 5 6 12 9 6 6 5 5 3 2 2 3 3 3 1 2 1 2 5 7 10 10 8 12 15 15 15 15 14 13 13 12 12 12 12
21 19 17 16 15 15 15 16 17 17 15 12 9 7 6 6 6 5 6 5 4 4 4 7 6 5 7 8 2 1 6 6 7 9 7 9 9 8 10 10 10 10 10 11 10 8 7 6 8 8 7 9 8 7 6 7 7 7 6 3 4 4 3 3 3 4 3 2 1 0 2 6 8 10 10 9 11 13 14 15 15 14 15 14 12 12 12 12
22 20 17 15 14 14 15 15 16 17 14 10 8 6 6 6 6 7 7 5 5 4 3 7 9 10 7 3 2 2 8 9 8 9 8 9 9 8 9 9 9 8 8 7 7 6 5 7 8 8 9 8 8 7 7 5 6 5 4 3 4 6 5 2 3 5 4 3 3 1 2 5 8 11 11 9 10 12 13 14 15 14 14 14 12 11 12 11
22 20 17 15 14 14 14 15 16 16 13 9 7 6 6 7 8 8 8 6 6 5 6 9 9 9 7 4 2 6 9 8 8 8 8 9 8 8 9 8 9 8 7 7 7 5 6 7 6 7 8 7 7 6 7 6 5 3 1 1 3 6 7 5 3 5 7 7 5 3 2 2 7 12 12 11 11 12 12 13 14 14 13 13 11 11 12 11
22 20 17 15 14 14 14 14 15 15 13 9 6 6 7 8 9 9 8 6 4 7 10 11 10 7 5 5 5 7 7 7 8 8 7 7 6 7 9 9 8 8 7 7 7 7 7 7 6 7 7 6 7 7 7 3 6 4 2 2 2 5 7 7 6 7 11 10 7 6 3 4 8 12 12 11 12 11 11 13 13 13 13 12 12 12 12 11
22 19 16 14 13 13 13 14 14 14 13 10 7 9 9 8 9 8 9 7 5 5 4 5 7 4 1 4 2 4 6 6 6 7 7 6 5 7 10 9 7 9 8 6 7 9 7 6 7 7 7 8 9 8 9 4 12 7 5 6 3 4 5 6 7 10 12 10 9 8 5 7 11 12 12 11 11 10 10 11 10 11 12 11 11 11 12 12
21 19 16 14 12 13 13 14 14 14 14 11 8 9 8 5 3 3 7 9 8 7 3 4 8 5 1 4 5 6 5 5 7 7 7 7 7 9 10 8 7 8 8 7 7 8 7 7 8 9 9 10 11 11 13 8 10 10 6 7 4 3 3 3 5 10 10 7 7 8 6 8 11 11 12 11 10 10 9 11 10 10 11 11 11 12 13 12
21 18 15 13 12 12 12 13 14 13 14 12 8 8 7 6 5 3 3 7 10 7 5 5 7 7 5 1 4 3 4 7 9 8 7 8 8 8 8 8 8 7 8 10 7 7 8 8 8 11 12 13 12 8 12 14 4 10 7 6 4 2 3 5 5 7 6 2 3 6 6 7 9 10 10 10 11 11 8 9 12 13 12 11 11 13 13 11
20 16 14 13 12 12 12 14 14 12 14 12 9 10 8 9 8 8 9 6 6 2 4 6 6 5 4 5 2 3 7 8 8 8 7 8 9 7 7 8 9 7 9 11 7 6 8 8 11 14 13 13 11 7 12 16 6 4 5 5 3 3 5 6 7 7 3 1 2 7 8 6 7 7 6 6 8 9 6 5 7 12 14 11 11 12 12 12
19 16 14 12 12 12 13 13 13 13 13 11 11 11 9 9 9 9 9 8 2 2 4 6 6 7 8 8 5 7 10 7 8 9 9 9 9 8 7 8 9 9 9 11 8 6 7 8 12 14 13 13 11 7 13 13 6 7 5 4 5 7 6 5 8 7 3 1 1 6 6 4 4 2 1 4 3 2 4 2 7 9 12 12 12 12 12 13
18 15 12 12 13 12 13 14 15 16 16 16 16 12 9 8 9 10 8 10 3 2 2 4 6 6 6 4 5 10 11 5 6 8 11 10 9 7 7 8 9 10 9 11 12 10 7 8 11 14 14 13 9 6 9 7 4 8 10 6 8 12 9 6 11 9 3 3 1 4 2 2 4 4 2 4 3 3 2 3 5 9 10 12 11 12 11 13
17 14 12 13 14 12 14 15 14 16 16 16 15 10 8 7 8 9 8 8 2 3 2 4 5 3 3 2 4 8 10 6 7 8 11 12 10 6 6 6 7 9 10 12 13 9 9 10 12 14 15 12 8 7 7 5 5 8 11 10 12 15 10 14 15 9 4 1 2 5 2 2 6 8 7 3 1 2 2 3 6 8 10 11 10 12 12 13
17 14 11 12 13 13 13 9 10 15 13 7 3 5 7 6 7 9 8 6 2 3 4 5 3 0 1 5 7 7 10 6 5 8 9 12 11 7 6 5 5 9 10 10 8 6 9 11 9 12 14 11 8 8 9 8 8 6 6 6 7 13 16 21 18 8 4 2 5 7 4 0 4 7 8 6 4 4 3 6 9 9 11 11 9 11 12 13
16 13 11 11 13 12 8 7 14 18 11 5 8 8 7 5 7 8 7 4 3 1 3 4 2 1 2 5 9 7 3 2 5 7 7 10 9 8 7 6 7 8 8 6 5 4 10 13 9 11 12 10 8 8 11 10 9 3 5 10 5 6 14 20 17 9 5 5 6 10 7 1 3 7 9 9 7 7 7 9 11 10 12 13 11 12 13 13
15 13 11 11 13 12 11 13 16 15 10 11 11 9 8 7 8 7 5 1 4 1 1 3 3 2 3 5 10 7 4 3 4 6 7 10 9 8 8 8 7 8 8 6 5 6 12 14 10 11 8 6 7 8 10 12 10 2 5 7 4 3 8 13 12 8 8 6 5 10 9 2 2 6 9 11 10 10 11 13 13 11 12 13 13 14 14 13
15 13 11 12 14 15 15 14 13 13 12 12 11 10 9 8 7 5 5 2 2 1 0 3 1 5 6 6 8 6 4 7 6 5 7 9 10 9 7 7 8 10 10 7 8 8 6 6 3 5 5 4 7 8 11 14 10 1 6 5 4 5 8 9 8 5 9 6 5 10 12 4 2 6 9 10 12 13 12 11 12 10 9 12 14 15 15 13
14 12 12 13 13 12 12 13 12 12 10 10 12 12 11 8 6 5 3 2 2 2 2 2 1 4 8 8 8 6 7 6 2 5 7 6 10 9 7 8 9 10 7 7 13 5 2 2 3 4 7 6 8 8 11 13 8 1 1 3 5 6 5 4 6 3 5 5 2 8 11 5 2 6 8 9 10 13 12 10 10 10 10 12 13 13 14 14
14 12 12 14 13 10 10 9 7 7 7 12 14 12 10 5 5 5 3 3 1 2 4 5 4 5 9 8 5 6 7 5 4 7 6 4 9 8 7 8 6 7 5 6 12 8 7 8 7 3 7 8 10 10 10 12 8 4 4 5 5 6 5 5 6 3 5 5 3 8 8 4 5 4 7 9 9 12 15 12 12 14 13 12 11 11 13 13
13 13 13 15 16 15 15 11 12 12 9 12 11 8 6 3 5 3 5 1 4 2 1 3 4 6 9 5 4 5 7 4 4 7 7 6 7 6 8 7 4 5 5 5 8 8 9 6 4 4 8 9 11 8 8 10 6 4 5 4 5 6 4 5 5 3 5 2 5 7 8 3 5 3 4 9 10 12 15 13 12 14 15 14 13 14 13 13
12 13 14 15 17 19 19 15 14 13 11 12 9 5 6 4 3 4 3 1 2 4 2 2 2 6 5 6 5 5 5 3 3 7 8 8 7 7 10 10 7 6 4 6 8 7 6 6 8 9 8 9 11 7 7 9 8 6 6 6 6 5 4 5 4 4 6 1 6 7 7 3 3 4 5 7 10 11 15 16 13 12 13 14 14 14 13 13
12 13 15 16 18 20 18 14 12 12 12 11 8 5 7 4 3 5 5 7 4 1 1 1 2 2 1 3 3 4 4 3 4 7 6 7 6 7 9 10 9 6 6 6 7 8 7 7 10 11 7 10 12 11 10 6 6 8 9 8 8 6 4 4 3 4 6 0 7 8 5 1 0 1 2 5 10 10 13 15 15 12 11 12 12 13 13 13
12 15 16 18 19 17 15 13 11 10 9 8 6 6 6 3 5 6 5 5 5 1 5 1 5 4 3 2 2 1 3 0 5 7 5 5 6 4 5 7 8 7 8 5 3 7 10 7 10 14 10 11 13 13 11 8 5 5 8 9 8 7 6 4 2 4 6 3 4 5 2 1 2 3 1 7 8 10 12 14 16 16 15 14 13 11 8 8
13 13 12 16 19 14 10 10 9 8 7 7 7 5 2 2 4 6 4 5 9 3 3 2 5 5 5 5 5 4 6 2 5 6 4 5 4 3 4 4 4 6 6 2 4 5 8 6 7 13 10 11 13 13 11 8 6 2 6 9 8 8 9 6 2 4 7 6 3 5 4 2 1 2 4 8 7 10 13 14 16 16 17 17 14 9 4 3
13 11 11 15 15 9 7 7 8 7 7 7 6 7 5 3 5 7 4 6 7 2 5 4 0 4 5 2 3 3 7 5 4 3 4 5 3 2 4 2 1 7 7 2 5 6 5 2 8 10 8 9 9 10 12 13 11 6 4 4 7 9 10 7 4 4 7 7 2 6 7 6 4 3 5 8 9 11 13 14 15 15 16 17 13 9 6 5
13 13 14 12 6 4 6 7 8 7 7 7 4 3 5 4 6 7 6 8 6 3 6 6 1 1 4 3 2 3 5 3 4 3 3 4 3 3 6 1 3 6 8 5 4 4 5 4 6 9 8 8 7 7 9 12 15 13 8 6 4 7 8 5 4 5 5 5 3 3 6 5 3 3 6 8 10 11 11 12 15 15 16 15 13 10 8 8
12 11 10 8 6 3 7 7 7 7 6 8 4 0 2 5 5 5 6 8 6 3 6 6 1 0 3 4 1 2 2 2 2 3 2 2 4 2 8 3 4 4 5 7 7 4 5 6 3 6 7 7 7 6 7 8 12 14 10 8 7 4 4 5 6 5 5 4 3 2 4 3 2 4 8 8 8 10 11 12 13 14 16 14 13 12 9 9
10 8 4 9 7 3 7 9 8 7 6 5 5 3 4 6 5 5 5 7 5 3 5 7 4 2 3 3 0 2 2 1 2 1 3 2 2 3 5 4 3 2 1 5 8 7 5 4 3 4 6 7 6 7 8 8 9 10 9 7 6 3 3 4 5 7 6 5 4 4 3 4 3 4 7 6 5 5 6 8 10 12 15 15 14 15 12 10
9 7 2 6 4 2 7 9 6 7 6 2 1 5 6 6 7 5 2 3 4 1 2 7 4 5 6 1 1 3 1 1 1 1 2 2 2 2 1 4 6 6 4 5 8 5 3 3 3 3 4 6 6 8 10 11 9 9 9 8 6 5 4 4 5 6 6 5 5 5 2 5 4 3 5 7 4 3 4 5 8 11 16 16 15 16 15 12
7 6 2 4 1 3 7 7 4 6 4 3 3 4 3 4 6 6 2 2 5 2 2 5 2 5 8 4 3 3 1 1 0 1 2 2 2 4 3 4 8 7 6 5 3 5 6 4 5 6 5 6 7 8 11 12 12 10 9 9 7 7 7 6 5 5 6 6 6 6 2 5 4 2 4 7 2 0 3 4 8 10 13 14 15 16 16 15
7 6 2 4 3 5 8 7 3 4 1 6 3 2 1 4 4 6 5 4 5 3 3 3 1 4 5 3 5 4 3 1 0 3 1 3 1 6 3 4 5 7 7 5 7 10 8 5 4 7 8 8 11 9 10 11 13 10 8 9 8 9 10 8 5 5 5 6 7 5 1 3 2 2 3 8 4 3 3 5 8 8 9 11 13 13 13 14
7 8 1 4 3 6 7 6 5 3 4 2 4 2 2 3 5 7 6 5 4 4 4 3 3 2 2 1 4 4 4 2 1 2 2 2 3 4 2 4 5 7 4 7 7 7 5 3 3 5 6 5 8 8 9 9 9 7 6 6 7 10 12 11 7 6 5 6 9 6 2 3 1 1 5 11 10 6 6 3 2 4 7 8 9 10 11 11
7 7 2 4 5 7 6 6 8 4 4 1 4 1 3 3 3 4 5 3 4 5 4 3 1 3 4 3 3 2 1 4 1 1 2 1 3 1 1 3 5 6 9 10 7 6 5 3 2 4 6 5 4 3 1 2 3 5 6 9 12 13 12 9 7 6 4 5 8 5 4 6 5 6 6 12 15 7 5 3 3 3 3 7 8 8 9 9
5 6 4 3 5 6 6 4 6 5 3 1 2 2 4 1 6 1 5 2 2 3 4 2 1 3 3 2 4 2 3 2 2 1 3 2 2 1 1 4 5 5 9 7 5 5 4 4 4 6 8 6 5 7 8 7 6 6 8 13 15 11 10 9 7 5 5 4 4 2 9 9 7 6 5 10 15 10 3 5 4 4 3 2 5 7 6 7
4 6 6 2 2 4 3 3 4 2 3 1 1 1 5 4 2 3 1 2 2 2 3 2 2 3 2 3 5 3 2 4 2 2 3 4 2 3 2 8 5 4 3 4 5 4 4 5 6 9 10 10 9 8 10 10 9 10 10 12 14 11 11 13 8 5 6 3 1 7 13 10 7 6 5 6 11 12 5 6 4 1 2 3 3 3 4 5
5 6 5 2 3 4 3 1 2 1 1 0 1 1 5 5 1 2 1 2 1 1 3 3 3 1 1 1 2 3 5 5 2 2 2 4 4 3 6 8 3 5 6 8 6 2 3 5 7 9 10 12 12 10 10 10 11 14 11 6 8 11 14 13 8 7 9 6 2 6 15 12 7 8 6 3 6 11 12 9 6 3 4 4 3 1 1 3
5 6 6 5 4 6 5 2 3 4 1 2 2 3 5 3 1 1 1 2 2 2 2 4 3 2 2 1 2 2 4 1 1 4 2 3 5 4 4 4 3 3 5 5 2 4 3 5 6 10 10 10 12 14 15 13 11 12 9 6 8 10 13 10 7 9 12 11 9 4 16 14 8 7 7 4 3 6 9 10 9 7 6 7 8 6 2 2
5 5 7 8 7 6 5 1 2 5 1 3 1 4 3 3 2 3 1 3 4 2 1 3 2 3 5 4 4 1 2 1 3 3 2 4 3 4 4 4 3 6 8 5 4 5 3 3 4 8 8 8 13 14 11 11 12 10 6 6 9 11 13 11 7 7 8 9 11 4 12 12 7 6 6 5 4 4 5 5 8 9 8 8 10 8 5 3
8 6 6 7 6 4 4 3 3 5 3 3 3 1 1 2 2 3 1 2 6 4 3 5 3 1 3 2 2 1 1 1 4 3 1 4 2 0 3 2 1 5 7 4 2 3 4 4 4 6 6 6 10 9 8 8 8 7 3 4 7 8 10 11 12 14 15 12 11 7 3 6 5 4 4 3 3 5 5 3 3 3 4 6 9 10 8 6
10 8 6 6 5 3 4 5 4 4 3 1 4 1 3 0 2 2 2 0 2 2 3 6 5 3 2 1 2 3 5 4 5 4 3 5 4 2 4 2 3 5 5 4 2 2 4 4 4 5 4 5 7 9 11 11 5 0 2 5 7 6 7 11 14 17 19 15 9 5 2 1 2 2 2 2 3 7 9 8 6 7 8 8 9 8 8 7
Wind_Direction
345 344 343 342 339 339 340 338 337 335 334 332 331 330 328 327 325 323 321 319 319 318 315 313 314 318 318 317 318 318 324 317 301 275 244 248 244 242 249 235 240 243 223 209 221 237 231 224 234 237 243 243 237 265 276 281 275 89 72 47 272 175 152 188 171 189 149 143 155 161 177 146 127 143 151 146 130 121 124 130 136 130 121 118 123 129 132 132
343 342 340 338 337 339 341 339 338 336 335 332 329 327 326 325 323 322 321 320 318 317 316 314 316 319 318 318 321 327 330 310 286 271 252 249 250 248 251 245 248 237 204 211 222 227 231 224 224 225 236 243 240 266 273 297 305 48 91 180 254 124 155 192 165 192 157 144 155 161 179 150 138 149 152 143 133 140 139 130 125 116 114 120 127 132 132 135
342 341 337 335 335 338 341 340 338 338 337 334 329 324 322 321 319 318 318 319 317 316 315 317 319 317 319 317 323 339 327 302 279 266 254 243 241 245 252 252 245 227 207 212 221 224 238 246 245 231 235 244 236 252 224 300 317 81 237 238 142 113 143 162 148 191 151 143 154 157 170 153 144 148 148 144 140 149 136 122 121 121 126 129 132 134 137 139
341 338 336 334 334 337 339 339 338 339 339 336 333 325 320 317 315 315 317 319 317 318 320 321 319 315 321 316 329 353 314 290 276 111 202 224 233 242 249 252 236 218 213 221 234 241 245 257 269 259 246 251 268 281 224 199 316 166 265 305 138 136 131 138 149 164 137 146 156 151 156 148 149 151 146 147 141 141 130 128 131 132 133 133 136 139 142 140
341 337 335 333 335 336 335 335 337 339 339 337 334 326 320 315 313 316 318 325 325 322 323 319 320 318 316 314 345 341 301 282 91 95 113 216 242 247 242 238 222 209 214 228 244 252 250 254 266 260 250 257 345 313 262 168 260 255 21 73 156 154 124 142 145 121 137 152 152 147 147 143 150 148 144 146 139 137 133 133 134 133 134 136 139 142 144 141
344 339 337 339 339 337 334 334 335 337 337 336 333 325 319 314 312 314 318 328 326 320 322 320 325 320 311 322 341 308 276 292 70 100 53 299 280 253 225 216 207 205 216 232 244 249 246 246 257 252 249 254 125 256 243 162 207 309 58 92 153 176 128 132 124 110 181 153 147 150 146 143 146 140 141 140 130 134 132 130 132 133 136 138 140 144 146 143
346 343 342 344 340 336 333 332 333 334 334 335 333 326 318 312 310 312 317 323 320 319 321 326 329 318 319 325 310 268 253 274 47 99 0 333 292 230 206 203 197 204 220 231 238 243 239 236 251 246 245 264 138 254 237 163 109 31 75 102 136 237 113 94 102 119 124 147 164 156 143 144 143 139 144 137 130 140 136 129 131 134 137 140 143 146 146 143
347 344 345 344 338 335 332 332 333 332 331 332 331 329 320 313 311 310 314 315 315 317 321 334 334 321 340 333 293 253 244 255 90 83 345 31 185 191 189 197 198 210 222 228 235 241 240 238 248 248 266 304 273 255 211 154 106 82 102 116 163 197 101 94 106 113 87 174 177 145 134 137 133 134 139 136 138 146 140 131 133 137 140 143 144 145 145 144
348 345 345 342 336 332 331 333 333 332 331 329 331 331 323 313 309 309 309 309 310 312 322 337 325 319 341 320 284 269 265 71 95 82 328 111 164 179 182 194 201 211 220 228 238 242 241 239 244 248 304 328 261 260 220 164 92 99 125 127 138 110 101 118 119 113 110 114 148 134 127 120 117 128 131 139 149 146 139 134 137 141 142 144 144 143 145 143
350 346 343 338 333 329 330 332 333 333 332 330 332 331 325 315 308 307 301 301 310 309 322 330 315 327 313 280 271 273 63 59 93 123 116 150 160 171 188 201 199 208 222 228 234 239 239 242 255 274 299 257 258 267 263 132 98 105 121 110 104 101 107 128 108 116 122 58 105 137 122 97 88 133 135 147 153 145 141 138 141 143 142 144 141 141 146 144
351 346 340 335 330 328 329 332 333 333 332 331 331 329 324 315 305 301 296 305 320 317 325 316 301 316 295 275 271 278 64 11 343 120 147 161 166 179 196 208 202 208 226 232 231 237 240 250 273 296 267 257 264 257 79 87 103 105 104 99 95 101 90 84 88 80 104 64 64 126 114 87 55 148 141 156 155 145 144 141 143 145 142 143 139 141 148 144
350 345 339 333 329 327 329 332 332 331 332 331 328 327 320 312 306 302 301 312 323 319 323 305 307 319 295 274 253 263 346 303 246 145 171 172 181 190 196 208 209 215 230 236 229 232 243 256 276 284 278 284 282 269 93 91 101 106 109 108 105 103 78 53 65 20 56 108 142 126 118 106 122 140 145 159 151 143 146 145 146 145 142 141 139 143 147 142
350 345 338 333 329 328 330 332 331 332 332 328 325 321 313 309 305 297 294 300 304 306 302 279 295 298 282 280 251 235 291 280 190 178 182 184 193 193 203 216 215 223 237 248 243 231 240 255 271 284 286 258 276 7 106 106 105 123 124 113 110 105 82 16 207 16 71 99 285 151 134 125 129 145 157 162 150 149 153 151 148 144 144 142 141 148 146 143
349 345 339 334 330 329 331 331 331 332 330 324 319 313 309 305 294 282 275 278 278 277 280 276 281 277 264 269 316 210 238 245 199 197 188 191 198 194 207 220 220 225 236 253 258 242 240 259 269 279 284 257 278 341 139 129 123 150 129 117 135 116 131 210 208 158 120 78 349 15 132 145 147 157 168 165 156 161 160 154 152 147 147 144 145 151 145 147
349 346 340 334 329 328 330 332 332 331 328 322 315 311 308 296 283 272 264 264 263 256 277 288 262 245 263 249 236 170 210 216 205 197 191 193 201 200 205 210 216 232 243 248 256 259 250 256 255 259 270 246 251 279 227 148 130 159 145 148 171 134 151 221 234 190 160 143 173 341 134 151 164 169 171 167 165 171 166 158 156 152 149 147 151 153 147 154
347 345 340 334 328 327 329 333 333 330 326 319 311 312 306 297 283 272 272 260 257 257 272 285 236 219 271 296 110 170 208 211 198 188 192 195 200 198 195 199 208 231 244 236 255 275 248 246 250 254 267 249 229 244 239 181 147 172 183 173 162 139 151 210 232 211 196 163 177 234 114 149 163 169 173 172 172 179 174 163 157 155 152 150 157 156 150 157
346 344 340 332 326 327 330 332 332 329 326 319 312 311 304 295 279 273 281 279 277 265 251 275 264 235 259 299 236 217 210 197 179 183 192 196 203 189 181 195 207 216 223 221 246 259 224 228 244 248 252 255 247 232 240 233 164 156 230 102 154 150 157 170 185 219 205 182 174 120 89 204 162 161 176 179 180 187 181 168 161 159 157 155 161 159 153 159
346 343 340 332 326 327 328 332 333 328 323 315 309 311 307 291 281 279 280 288 281 256 248 256 276 278 243 236 233 206 188 167 166 185 192 200 210 188 185 199 203 201 215 221 227 229 215 208 223 242 229 224 243 233 237 224 119 146 199 120 158 177 176 174 169 203 195 186 177 144 154 211 170 162 176 183 188 195 186 172 165 162 161 160 164 159 153 161
344 343 340 331 326 325 326 332 330 324 320 315 316 319 309 282 276 271 254 248 236 260 277 202 220 286 114 173 182 130 135 154 179 188 191 205 209 194 197 203 200 202 214 213 200 205 208 204 214 233 229 218 222 229 246 191 125 150 176 136 166 212 188 170 171 185 182 183 180 167 180 184 173 170 173 182 190 196 192 180 171 165 163 166 170 160 156 166
343 344 338 328 325 323 324 329 326 320 314 310 317 308 293 277 264 227 220 225 237 268 300 183 210 264 264 148 110 87 113 174 209 204 195 200 193 192 198 200 202 207 219 213 189 191 204 215 216 221 227 230 227 227 254 248 137 129 129 129 158 214 160 122 163 173 169 185 185 174 187 177 172 173 171 178 186 190 195 189 181 171 168 174 174 161 161 168
344 344 335 327 323 319 322 325 322 315 304 303 308 286 293 347 354 344 312 230 225 243 255 258 275 289 301 53 97 140 193 202 215 206 189 192 194 190 183 194 206 202 221 228 200 178 207 224 222 226 227 234 244 238 260 272 173 139 149 134 130 167 122 89 113 144 150 189 185 165 182 184 178 176 172 177 184 190 197 200 191 175 172 181 175 163 164 166
343 343 333 325 318 317 319 319 318 306 293 293 282 263 289 353 348 328 329 270 209 203 256 261 276 263 259 291 305 205 209 201 200 190 178 194 204 193 170 191 216 203 208 228 217 180 207 232 228 229 232 234 243 241 251 263 259 198 177 140 141 135 120 108 104 110 131 192 169 173 181 189 183 173 182 192 188 188 184 217 226 187 174 182 177 165 165 167
343 340 330 321 314 315 313 313 314 296 279 268 260 272 306 354 338 322 319 284 213 124 222 207 229 213 195 241 248 211 223 207 186 177 174 204 217 210 196 196 216 218 208 216 222 205 206 225 228 229 234 234 229 232 247 253 262 260 233 160 160 159 161 144 118 121 146 109 191 201 182 169 173 137 289 268 234 201 124 89 287 234 183 181 182 169 169 172
341 336 329 317 310 312 312 310 302 282 265 251 253 284 335 356 327 333 326 281 239 128 213 170 244 233 172 224 211 208 228 207 188 177 167 206 222 205 218 215 212 223 218 214 224 233 231 219 217 226 233 228 218 230 254 259 258 249 244 227 160 167 183 133 127 141 131 55 327 218 161 149 201 178 220 277 295 320 47 120 275 258 195 184 186 172 174 179
337 334 325 313 307 310 312 303 284 270 257 244 244 274 334 348 324 339 329 280 192 109 133 145 253 270 98 238 196 218 242 211 197 172 164 211 225 196 219 236 225 227 218 214 225 236 243 231 206 216 231 218 200 218 233 243 248 245 248 234 173 168 155 121 135 145 106 40 205 192 192 182 197 191 192 208 218 271 306 203 240 252 205 190 187 176 181 184
334 330 320 309 305 309 314 304 295 297 282 256 268 316 336 352 340 337 312 273 126 114 159 160 216 54 159 210 176 220 251 223 166 144 169 217 233 235 234 225 214 234 231 214 225 237 245 247 207 210 228 200 184 226 230 243 252 248 289 286 191 168 143 136 151 151 122 176 172 188 230 218 177 203 197 176 186 215 244 226 221 224 205 192 189 181 185 184
330 324 315 305 298 304 311 310 321 320 312 7 18 343 339 355 338 327 295 257 113 131 172 143 119 123 221 183 181 213 217 136 129 142 190 211 224 249 244 224 206 229 253 224 211 230 243 246 209 217 234 191 182 233 228 242 253 223 0 335 305 175 150 149 160 161 148 148 154 188 220 265 197 209 195 176 181 201 213 220 212 208 200 191 193 188 185 187
327 318 309 300 293 291 283 291 310 312 320 4 1 334 343 339 314 297 279 343 68 321 226 87 71 225 217 179 217 242 90 138 194 159 194 204 211 231 229 243 238 217 228 227 211 208 232 240 205 207 230 183 195 232 222 231 244 265 0 325 304 224 191 174 172 166 149 150 170 186 191 231 211 179 179 178 184 196 205 211 205 203 200 191 197 193 185 189
324 313 302 295 291 289 281 278 287 290 307 340 342 330 328 305 292 271 264 351 71 247 36 74 86 208 193 172 223 250 153 196 217 158 177 201 218 238 252 279 278 237 221 237 236 204 217 261 210 210 234 208 220 233 231 233 228 354 4 316 286 267 231 201 202 175 146 178 219 187 183 202 187 162 170 180 192 198 197 206 204 203 208 197 198 197 186 186
320 306 298 294 287 295 292 269 267 278 295 324 330 320 302 281 275 270 277 35 97 150 148 158 149 177 180 179 192 212 197 173 142 179 180 199 219 231 263 276 272 250 222 239 249 251 324 237 183 244 256 241 245 242 244 248 239 205 346 264 267 271 260 245 246 207 170 219 235 163 179 219 240 168 173 190 200 193 182 193 200 197 209 202 196 202 192 183
316 300 293 288 280 288 288 271 297 320 308 317 321 303 288 269 254 279 31 37 263 144 172 169 123 165 193 205 196 191 198 147 123 200 189 202 212 203 232 240 250 247 209 227 247 258 259 209 161 259 268 251 250 243 241 247 247 251 245 246 251 231 228 251 241 220 238 252 70 114 150 224 258 182 177 200 198 184 178 184 193 191 197 193 192 210 200 184
310 294 284 280 278 276 273 285 323 330 312 310 310 289 284 266 255 314 66 234 254 79 152 151 139 214 201 208 251 197 190 155 149 202 194 197 200 185 220 220 188 222 215 219 230 223 230 210 143 234 249 249 249 234 228 233 222 235 245 246 255 228 209 239 229 224 255 253 79 114 136 173 267 277 234 211 191 185 182 180 190 191 190 187 192 205 201 188
299 287 278 276 277 274 273 283 299 304 306 302 290 270 278 281 300 341 42 25 17 38 324 180 199 267 203 188 235 186 165 138 161 217 203 195 202 185 211 229 212 218 233 222 218 204 206 208 202 216 223 232 245 241 222 209 183 199 232 228 242 235 208 240 251 265 267 139 111 154 163 180 264 289 267 205 178 185 183 179 185 192 193 191 192 199 199 193
289 277 273 276 276 274 275 278 277 288 300 293 278 270 279 299 9 331 13 51 52 93 1 259 248 292 167 214 233 154 159 152 183 229 207 190 215 196 203 230 229 250 272 236 221 212 208 209 201 204 202 196 218 249 260 248 190 197 217 224 240 252 242 245 234 255 274 144 134 164 184 241 206 344 277 160 160 178 181 179 179 187 197 194 194 199 200 195
278 270 273 277 274 274 277 270 259 269 286 288 284 279 285 343 18 349 16 21 314 157 88 328 249 210 182 174 77 196 257 272 197 218 210 206 222 204 214 215 204 246 258 231 252 228 226 239 192 186 191 179 197 239 267 288 275 201 195 213 234 253 262 269 236 244 273 278 159 163 177 284 325 340 93 139 158 175 174 179 181 185 193 193 195 198 201 199
275 270 273 268 261 264 270 260 247 253 272 285 288 289 307 37 5 357 14 330 323 13 87 246 230 246 236 154 107 210 216 234 236 211 193 223 208 185 237 207 189 266 268 237 315 272 238 252 171 170 191 181 190 222 232 246 272 237 194 208 218 240 258 268 251 241 255 258 206 142 140 180 229 286 177 157 168 178 176 181 184 186 190 192 193 190 192 216
281 270 262 255 249 256 267 262 258 256 267 281 297 318 336 25 13 6 359 319 325 336 308 311 41 309 291 146 87 191 175 177 242 219 188 201 175 209 239 145 175 300 327 347 297 293 284 271 139 157 197 178 177 219 220 225 247 256 243 213 196 222 254 274 269 239 234 249 235 139 155 179 177 172 176 170 172 179 181 180 181 185 189 192 191 184 188 206
293 276 268 255 237 263 266 260 266 266 272 282 287 300 316 4 25 14 346 309 302 301 319 324 309 296 322 355 36 165 158 154 176 180 199 166 111 282 279 117 168 281 325 320 279 292 297 278 162 172 202 169 159 225 226 218 233 247 278 307 258 216 227 243 262 275 258 257 270 157 169 185 166 144 170 182 182 183 184 177 178 184 187 191 188 180 186 201
286 275 266 224 187 253 266 258 267 267 269 287 302 99 322 359 39 25 334 306 306 338 337 333 341 155 4 11 351 178 88 30 180 160 193 154 109 249 285 296 183 227 279 263 270 294 286 282 217 193 220 197 172 212 230 209 222 242 262 283 284 253 229 221 213 229 255 264 272 233 189 147 111 168 177 182 186 182 182 181 182 184 186 189 187 179 183 196
271 272 243 180 177 244 267 257 258 260 258 281 322 13 356 346 23 33 343 313 317 346 333 331 341 327 355 61 263 280 63 128 250 154 161 186 128 200 264 301 245 247 283 243 269 290 274 266 233 195 225 234 200 198 227 215 200 221 238 245 255 259 290 290 235 212 225 240 258 259 217 121 123 194 165 143 159 161 159 177 180 180 186 190 186 183 185 188
273 280 208 160 178 229 248 250 248 262 257 220 345 17 16 336 329 345 329 309 319 236 298 325 328 313 318 54 89 321 358 160 271 42 134 192 324 297 344 351 313 316 339 244 245 274 279 259 269 243 211 231 218 190 217 236 216 204 217 228 243 244 245 260 252 239 236 227 232 253 236 111 122 185 137 129 159 155 130 181 197 186 187 189 184 184 184 179
274 279 190 155 180 195 240 259 255 265 282 65 32 2 5 287 307 333 318 318 330 296 294 326 333 324 329 2 8 322 28 45 251 108 121 193 352 29 50 342 308 298 295 266 265 357 343 303 289 284 273 288 274 202 195 236 246 231 218 215 225 240 244 246 244 250 260 256 247 245 211 100 103 136 121 112 106 118 132 198 230 201 183 183 182 183 182 175
263 277 200 139 181 215 249 271 259 247 21 41 335 286 322 292 321 353 359 9 344 323 322 333 33 350 351 12 338 342 59 38 166 78 40 221 103 51 25 306 293 268 277 323 11 2 334 280 267 285 293 307 288 236 187 214 240 240 227 216 219 232 240 251 262 258 254 264 271 259 148 87 54 358 78 98 97 282 218 192 218 197 172 177 176 176 177 173
285 288 308 116 192 232 258 285 286 259 110 67 286 206 119 331 337 334 351 22 350 327 343 2 58 20 311 284 333 24 56 287 195 85 332 232 102 58 321 303 300 282 320 25 11 341 318 260 246 286 287 279 266 235 180 189 228 248 246 230 230 234 238 247 265 281 280 287 301 315 82 126 165 128 96 109 132 226 253 202 205 194 172 170 166 164 168 169
298 284 254 149 186 230 258 287 301 320 98 152 292 301 192 162 67 323 313 5 339 332 346 348 349 287 285 301 329 78 145 269 291 30 310 49 99 179 250 301 304 329 22 29 349 312 309 299 280 277 268 250 265 290 218 208 268 280 267 256 246 230 226 242 253 256 265 279 294 313 119 151 163 153 132 116 126 165 261 306 348 321 182 155 153 159 159 160
302 284 267 180 181 229 252 276 297 324 31 172 255 316 276 117 88 18 298 344 2 330 320 316 321 304 316 324 293 207 181 274 10 25 264 236 146 104 33 281 283 7 31 9 317 287 286 296 284 271 274 287 315 321 307 292 284 263 241 252 261 243 218 236 246 245 254 243 243 114 118 143 156 143 129 109 117 135 244 298 332 353 359 101 131 140 140 150
279 282 293 287 216 248 241 215 243 280 39 23 218 289 292 299 113 152 293 8 7 329 329 335 321 314 347 343 314 317 327 324 39 94 273 287 350 39 280 258 244 118 109 252 247 250 278 279 261 254 256 265 275 289 288 279 277 275 250 240 258 261 243 235 225 252 284 271 172 89 95 111 126 118 106 95 113 131 162 271 285 51 46 19 46 85 123 143
273 284 310 321 257 296 333 294 282 325 142 195 345 250 269 286 251 153 78 38 338 357 21 332 289 280 72 16 347 325 313 319 354 5 311 299 314 289 240 252 234 154 192 231 218 201 305 290 280 273 257 246 241 244 254 251 254 266 270 271 279 284 278 259 227 244 270 270 280 88 94 95 103 113 113 105 120 136 154 192 221 181 141 112 96 276 247 123
295 308 340 344 295 309 337 5 343 315 278 68 15 264 264 295 20 117 356 354 341 29 27 315 307 18 9 49 94 323 299 299 295 307 286 258 299 313 262 278 319 305 290 296 38 55 342 293 294 294 283 268 257 244 233 229 239 253 269 315 324 316 311 297 258 253 258 265 288 56 93 90 84 101 111 113 97 114 140 161 168 173 175 149 155 191 208 129
326 326 344 332 303 296 294 258 281 278 204 101 268 261 269 300 4 72 122 321 344 25 31 294 327 29 350 15 91 210 265 180 244 281 248 243 295 340 304 301 318 303 301 315 20 32 332 293 307 295 287 283 275 263 243 235 241 246 266 325 336 333 330 327 320 310 299 289 298 5 88 86 67 77 95 104 105 106 120 145 151 160 175 166 157 153 142 148
338 325 333 309 296 311 291 264 268 266 234 173 185 198 220 251 357 34 133 342 345 349 348 334 346 25 322 3 93 187 130 166 251 275 281 273 296 226 255 285 296 284 295 311 351 335 301 307 313 286 270 268 277 294 328 316 269 231 234 10 11 354 346 357 6 4 358 341 316 317 61 89 75 59 57 71 114 109 85 53 60 75 83 114 127 130 138 157
348 330 332 303 290 319 277 250 247 256 276 25 80 43 281 177 54 305 259 311 284 280 348 332 322 311 266 200 58 354 354 339 306 326 326 302 308 247 231 255 256 270 306 317 284 279 295 305 304 292 279 277 301 332 344 336 329 138 43 23 22 15 24 30 22 14 12 5 346 332 356 71 91 76 93 109 79 65 52 35 27 23 31 64 91 117 134 131